Погода в Рыбачьем

Россия / Республика Крым     44°46′25″N   34°35′47″E
темп.,
°C
ветер,
м/с
пор.,
м/с
влажн.,
%
обл.,
%
осадки,
мм/ч
давл.,
гПа
погр.,
м
15 апреля, чт
чт1500:00+7вюв129794 0.0 1016154
03:00+6св11891 0.0 101541
06:00+6сз11902 0.1 101538
09:00+9зюз147314 0.1 1016453
12:00+11ююз24645 0.0 1015650
15:00+11зюз35574 0.0 1015659
18:00+10зсз45595 0.0 1016284
21:00+7сз4575100 0.0 1017116
16 апреля, пт
пт1600:00+6зсз3375100 0.0 1017104
03:00+6сз227476 0.0 101751
06:00+5ссз22751 0.0 101759
09:00+8в11643 0.0 1018341
12:00+9ююз456914 0.0 1019793
15:00+9ююз347276 0.0 1019582
18:00+9зсз34582 0.0 1019511
21:00+6сз55780 0.0 1021118
17 апреля, сб
сб1700:00+5сз55804 0.0 1021129
03:00+4ссз43795 0.0 102286
06:00+4ссз2270100 0.0 102289
09:00+7ююв2166100 0.0 1023375
12:00+7юв3273100 0.0 1023475
15:00+7юв21695 0.0 1023450
18:00+6юв117194 0.0 1022216
21:00+6ссв126998 0.0 1023106
18 апреля, вс
вс1800:00+6всв1259100 0.0 1021160
03:00+6св136197 0.1 1020219
06:00+6в1366100 0.2 1019234
09:00+7в246966 0.4 1018235
12:00+8вюв1272100 0.0 1019135
15:00+10юв237415 0.0 1018355
18:00+9ююв128431 0.1 1019244
21:00+8юз238767 0.1 102063
19 апреля, пн
пн1900:00+8с1287100 0.0 102014
03:00+8зсз0190100 0.0 101915
06:00+8з0189100 0.0 101912
09:00+9всв128291 0.0 1019135
12:00+9ююв128194 0.0 1019163
15:00+10св138190 0.1 1017157
18:00+11вюв1382100 0.0 1015148
21:00+11всв2583100 0.0 1014161